Home   Weather   Fredrikstad   Past weeks

Flag for Norway Past Weather in Fredrikstad, Norway — Yesterday and Last 2 Weeks

Now
28 °F

Chilly.


Feels Like: 28 °F
Forecast: 34 / 42 °F
Wind: 1 mph from North

Location: Rygge

Current Time: Dec 4, 2016 at 3:24:02 pm

Latest Report: Dec 4, 2016 at 2:50 pm


Visibility: N/A

Pressure: 30.09 "Hg

Humidity: 93%

Dew Point: 27 °F

Location of FredrikstadLocation

Past Weather in Fredrikstad — Graph

°F

Fredrikstad Temperature Yesterday

Maximum temperature yesterday: 30 °F (at 11:50 am)
Minimum temperature yesterday: 19 °F (at 4:50 am)
Average temperature yesterday: 25 °F

High & Low Weather Summary for the Past Weeks

 TemperatureHumidityPressure
High50 °F (Nov 26, 11:50 am)100% (Nov 19, 8:20 pm)30.45 "Hg (Nov 19, 8:20 pm)
Low19 °F (Dec 3, 4:50 am)42% (Nov 26, 3:50 pm)29.27 "Hg (Nov 21, 1:50 am)
Average36 °F80%29.91 "Hg
* Reported Nov 19 1:20 pm — Dec 4 1:50 pm, Fredrikstad, Weather by CustomWeather, © 2016

Note: Actual official high and low records may vary slightly from our data, if they occured in-between our weather recording intervals... More about our weather records

Advertising

Fredrikstad Weather History for the Previous 24 Hours

Scroll right to see more
 ConditionsComfort  
Time TempWeatherWind HumidityBarometerVisibility
1:50 pm
Sun, Dec 4
30 °FSunny.1 mph93%30.12 "Hg10 mi
1:20 pm28 °FSunny.2 mph93%30.12 "Hg10 mi
12:50 pm27 °FSunny.2 mph93%30.12 "Hg10 mi
12:20 pm25 °FSunny.2 mph100%30.12 "Hg10 mi
11:50 am25 °FSunny.1 mph93%30.15 "Hg10 mi
11:20 am23 °FSunny.2 mph100%30.15 "Hg10 mi
10:50 am23 °FSunny.1 mph93%30.15 "Hg10 mi
10:20 am23 °FSunny.3 mph93%30.15 "Hg10 mi
9:50 am21 °FSunny.2 mph93%30.15 "Hg10 mi
9:20 am21 °FCold.2 mph93%30.15 "HgN/A
8:50 am21 °FCold.2 mph93%30.15 "HgN/A
8:20 am21 °FCold.2 mph93%30.15 "HgN/A
7:50 am21 °FCold.1 mph93%30.15 "HgN/A
7:20 am21 °FPassing clouds.No wind93%30.15 "HgN/A
6:50 am21 °FCold.2 mph93%30.15 "HgN/A
6:20 am21 °FCold.1 mph93%30.15 "HgN/A
5:50 am21 °FCold.2 mph100%30.15 "HgN/A
5:20 am21 °FCold.2 mph93%30.15 "HgN/A
4:50 am23 °FPassing clouds.1 mph93%30.15 "HgN/A
4:20 am23 °FPassing clouds.3 mph93%30.15 "HgN/A
3:50 am23 °FPassing clouds.2 mph93%30.15 "Hg1 mi
3:20 am23 °FCold.2 mph100%30.15 "Hg1 mi
2:50 am23 °FCold.2 mph100%30.15 "Hg4 mi
2:20 am25 °FCold.1 mph93%30.15 "Hg0 mi
1:50 am25 °FPassing clouds.2 mph100%30.15 "HgN/A
1:20 am25 °FOvercast.3 mph100%30.15 "HgN/A
12:50 am25 °FOvercast.2 mph100%30.15 "HgN/A
11:50 pm
Sat, Dec 3
25 °FOvercast.3 mph100%30.15 "HgN/A
11:20 pm25 °FOvercast.2 mph100%30.15 "HgN/A
10:50 pm25 °FOvercast.3 mph93%30.15 "HgN/A
10:20 pm25 °FPassing clouds.3 mph93%30.15 "HgN/A
9:50 pm25 °FCold.3 mph93%30.15 "HgN/A
9:20 pm25 °FPassing clouds.2 mph93%30.15 "Hg6 mi
8:50 pm25 °FPassing clouds.1 mph93%30.15 "HgN/A
8:20 pm25 °FPassing clouds.1 mph100%30.15 "HgN/A
7:50 pm25 °FPassing clouds.2 mph100%30.15 "HgN/A
7:20 pm27 °FPassing clouds.2 mph93%30.15 "HgN/A
6:50 pm27 °FPassing clouds.2 mph93%30.15 "HgN/A
6:20 pm27 °FPassing clouds.3 mph93%30.12 "HgN/A
5:50 pm27 °FMostly cloudy.2 mph100%30.12 "HgN/A
5:20 pm27 °FOvercast.3 mph93%30.12 "HgN/A
4:50 pm27 °FOvercast.3 mph93%30.12 "HgN/A
4:20 pm27 °FMostly cloudy.2 mph93%30.12 "HgN/A
3:50 pm28 °FPassing clouds.2 mph93%30.12 "HgN/A
3:20 pm28 °FPartly sunny.2 mph86%30.12 "HgN/A
Weather by CustomWeather, © 2016

See weather overviewHow to use our weather pages